Flag for U.S.A. Weather past 2 weeks in Breckenridge, Colorado, U.S.A.

Now
52 °F

Broken clouds.


Feels Like: 47 °F
Forecast: 47 / 63 °F
Wind: 14 mph from West

Location: Copper Mountain - Red Cliff Pass

Current Time: Aug 20, 2014 at 11:04:33 AM

Latest Report: Aug 20, 2014 at 10:36 AM


Visibility: 10 mi

Pressure: 30.45 "Hg

Humidity: 77%

Dew point: 45 °F

Location of BreckenridgeLocation

Historic Weather in Breckenridge — Graph

°F

Breckenridge temperature yesterday

Maximum temperature yesterday: 61 °F (at 1:36 PM)
Minimum temperature yesterday: 45 °F (at 10:56 PM)
Average temperature yesterday: 54 °F

Past Weeks' High & Low Weather Summary

 TemperatureHumidityPressure
High68 °F (Aug 12, 4:56 PM)87% (Aug 6, 5:56 AM)30.80 "Hg (Aug 6, 5:56 AM)
Low41 °F (Aug 6, 5:56 AM)18% (Aug 16, 3:36 PM)30.36 "Hg (Aug 20, 3:16 AM)
Average53 °F50%30.65 "Hg
* Reported Aug 5 9:16 AM — Aug 20 9:56 AM, Breckenridge, Weather by CustomWeather, © 2014

Note: Actual official high and low records may vary slightly from our data, if they occured in-between our weather recording intervals... More about our weather records

Advertising

Breckenridge weather history for previous 24 hours

 ConditionsComfort  
Time TempWeatherWind HumidityBarometerVisibility
9:56 AM
Aug 20
50 °FBroken clouds.8 mph76%30.45 "Hg10 mi
9:36 AM48 °FLight rain. Mostly cloudy.8 mph87%30.44 "Hg10 mi
9:16 AM46 °FLight rain. Low clouds.10 mph87%30.44 "Hg0 mi
8:56 AM46 °FLight rain. Low clouds.13 mph82%30.43 "Hg0 mi
8:36 AM46 °FDrizzle. Low clouds.14 mph82%30.43 "Hg0 mi
8:16 AM46 °FCloudy.9 mph82%30.43 "Hg1 mi
7:56 AM46 °FMostly cloudy.3 mph82%30.42 "Hg0 mi
7:36 AM46 °FCloudy.8 mph82%30.42 "Hg10 mi
7:16 AM45 °FMostly cloudy.5 mph87%30.41 "Hg10 mi
6:56 AM45 °FLow clouds.5 mph87%30.41 "Hg0 mi
6:36 AM45 °FOvercast.8 mph81%30.40 "Hg1 mi
5:56 AM45 °FLow clouds.5 mph87%30.39 "Hg0 mi
5:36 AM45 °FMostly cloudy.14 mph81%30.38 "Hg0 mi
5:16 AM45 °FMostly cloudy.9 mph81%30.38 "Hg3 mi
4:56 AM46 °FOvercast.7 mph71%30.38 "Hg10 mi
4:36 AM48 °FPartly cloudy.8 mph66%30.38 "Hg10 mi
4:16 AM46 °FPartly cloudy.12 mph71%30.38 "Hg10 mi
3:56 AM46 °FPassing clouds.20 mph71%30.38 "Hg10 mi
3:36 AM46 °FPassing clouds.24 mph71%30.36 "Hg10 mi
3:16 AM48 °FPassing clouds.25 mph66%30.36 "Hg10 mi
2:56 AM46 °FPartly cloudy.23 mph71%30.37 "Hg10 mi
2:36 AM46 °FOvercast.22 mph71%30.37 "Hg10 mi
2:16 AM46 °FOvercast.23 mph76%30.37 "Hg10 mi
1:56 AM50 °FPartly cloudy.23 mph67%30.39 "Hg10 mi
1:36 AM50 °FPassing clouds.22 mph67%30.39 "Hg10 mi
1:16 AM46 °FOvercast.17 mph76%30.40 "Hg10 mi
12:56 AM46 °FLight rain. Overcast.9 mph82%30.41 "Hg10 mi
12:36 AM46 °FMostly cloudy.7 mph82%30.41 "Hg10 mi
12:16 AM46 °FMostly cloudy.8 mph82%30.41 "Hg10 mi
11:56 PM
Aug 19
45 °FFog.8 mph87%30.42 "Hg1 mi
11:36 PM45 °FLight rain. Low clouds.13 mph87%30.43 "Hg0 mi
11:16 PM45 °FRain. Low clouds.12 mph87%30.44 "Hg0 mi
10:56 PM45 °FRain. Low clouds.20 mph87%30.43 "Hg0 mi
10:36 PM46 °FMostly cloudy.24 mph76%30.42 "Hg10 mi
10:16 PM54 °FMostly cloudy.15 mph51%30.42 "Hg10 mi
9:56 PM54 °FOvercast.14 mph54%30.43 "Hg10 mi
9:36 PM54 °FPartly cloudy.15 mph51%30.42 "Hg10 mi
9:16 PM54 °FPassing clouds.16 mph54%30.42 "Hg10 mi
8:56 PM54 °FPassing clouds.17 mph51%30.41 "Hg10 mi
8:36 PM54 °FScattered clouds.16 mph54%30.41 "Hg10 mi
8:16 PM54 °FSunny.16 mph51%30.41 "Hg10 mi
7:56 PM54 °FScattered clouds.15 mph51%30.41 "Hg10 mi
7:36 PM54 °FPartly sunny.16 mph54%30.41 "Hg10 mi
7:16 PM52 °FScattered clouds.13 mph62%30.41 "Hg10 mi
6:56 PM52 °FScattered clouds.6 mph67%30.41 "Hg10 mi
6:36 PM46 °FPartly sunny.5 mph82%30.42 "Hg10 mi
6:16 PM50 °FBroken clouds.6 mph71%30.43 "Hg10 mi
5:56 PM54 °FThundershowers. Broken clouds.10 mph54%30.43 "Hg10 mi
5:36 PM54 °FCloudy.9 mph63%30.45 "Hg10 mi
5:16 PM52 °FCloudy.13 mph58%30.45 "Hg10 mi
4:56 PM52 °FLight rain. Cloudy.8 mph58%30.45 "Hg10 mi
4:36 PM52 °FRain. Cloudy.17 mph58%30.46 "Hg10 mi
4:16 PM54 °FCloudy.26 mph58%30.43 "Hg10 mi
3:56 PM54 °FThundershowers. Mostly cloudy.36 mph54%30.43 "Hg10 mi
3:36 PM59 °FThundershowers. Cloudy.26 mph34%30.42 "Hg10 mi
2:56 PM61 °FThundershowers. Partly sunny.15 mph31%30.45 "Hg10 mi
2:36 PM61 °FScattered clouds.12 mph31%30.45 "Hg10 mi
2:16 PM61 °FScattered clouds.12 mph31%30.46 "Hg10 mi
1:56 PM61 °FScattered clouds.9 mph31%30.47 "Hg10 mi
1:36 PM61 °FScattered clouds.8 mph34%30.49 "Hg10 mi
1:16 PM59 °FBroken clouds.9 mph39%30.49 "Hg10 mi
12:56 PM59 °FCloudy.9 mph39%30.51 "Hg10 mi
12:36 PM59 °FCloudy.23 mph42%30.50 "Hg10 mi
11:56 AM55 °FCloudy.13 mph44%30.51 "Hg10 mi
11:36 AM55 °FBroken clouds.21 mph44%30.51 "Hg10 mi
11:16 AM59 °FBroken clouds.7 mph42%30.52 "Hg10 mi
Weather by CustomWeather, © 2014

See weather overviewHow to use our weather pages